Birmingham, AL

10:01 PM CDT on August 21, 2017 (GMT -0500)
Birmingham International

Weather History for KBHM - October, 2014

Change the Weather History Date:

Saturday, October 4, 2014

  Actual Average Record
Temperature  
Mean Temperature 57 °F 68 °F  
Max Temperature 67 °F 79 °F 92 °F (1925)
Min Temperature 46 °F 57 °F 35 °F (1987)
Degree Days  
Heating Degree Days 8 2  
Month to date heating degree days 8 6  
Since 1 July heating degree days 8 15  
Cooling Degree Days 0 5  
Month to date cooling degree days 25 20  
Year to date cooling degree days 2041 1970  
Growing Degree Days 7 (Base 50)    
Moisture  
Dew Point 37 °F    
Average Humidity 52    
Maximum Humidity 78    
Minimum Humidity 26    
Precipitation  
Precipitation 0.00 in 0.12 in 3.02 in (1995)
Month to date precipitation 0.62 0.48  
Year to date precipitation 35.12 41.46  
Snow  
Snow 0.00 in 0.00 in - ()
Month to date snowfall 0.0 0.0  
Since 1 July snowfall 0.0 0.0  
Since 1 September snowfall 0.0 0.0  
Snow Depth 0.00 in    
Sea Level Pressure  
Sea Level Pressure 30.03 in    
Wind  
Wind Speed 10 mph (NW)    
Max Wind Speed 23 mph    
Max Gust Speed 28 mph    
Visibility 10 miles    
Events      
T = Trace of Precipitation, MM = Missing Value Source: NWS Daily Summary

Daily Weather History Graph

Daily Weather History Graph

Search for Another Location

Airport or City:

Trip Planner

Search our weather history database for the weather conditions in past years. The results will help you decide how hot, cold, wet, or windy it might be!

Date:

Astronomy

Oct. 04, 2014 Rise Set
Actual Time 6:43 AM CDT 6:27 PM CDT
Civil Twilight 6:18 AM CDT 6:52 PM CDT
Nautical Twilight 5:49 AM CDT 7:20 PM CDT
Astronomical Twilight 5:20 AM CDT 7:49 PM CDT
Moon 3:53 PM CDT (10/4) 2:22 AM CDT (10/4)
Length of Visible Light 12h 33m
Length of Day
11h 43m
Waxing Gibbous, 81% of the Moon is Illuminated
Oct 4
Waxing Gibbous
Oct 8
Full
Oct 15
Last Quarter
Oct 23
New
Oct 30
First Quarter

Hourly Weather History & Observations

Time (CDT) Temp. Dew Point Humidity Pressure Visibility Wind Dir Wind Speed Gust Speed Precip Events Conditions
12:53 AM 60.8 °F 53.6 °F 77% 30.01 in 10.0 mi NNW 8.1 mph - N/A   Clear
1:53 AM 59.0 °F 51.1 °F 75% 30.00 in 10.0 mi NNW 6.9 mph - N/A   Clear
2:53 AM 57.9 °F 48.9 °F 72% 30.01 in 10.0 mi NNW 11.5 mph - N/A   Scattered Clouds
3:53 AM 55.0 °F 44.1 °F 67% 30.03 in 10.0 mi North 13.8 mph - N/A   Scattered Clouds
4:53 AM 53.1 °F 41.0 °F 64% 30.03 in 10.0 mi NW 10.4 mph - N/A   Clear
5:53 AM 50.0 °F 41.0 °F 71% 30.05 in 10.0 mi NNW 11.5 mph - N/A   Clear
6:53 AM 48.9 °F 37.9 °F 66% 30.06 in 10.0 mi NNW 10.4 mph - N/A   Partly Cloudy
7:53 AM 50.0 °F 37.9 °F 63% 30.08 in 10.0 mi NNW 8.1 mph - N/A   Clear
8:53 AM 53.1 °F 39.0 °F 59% 30.09 in 10.0 mi NNW 9.2 mph - N/A   Clear
9:53 AM 55.9 °F 34.0 °F 44% 30.09 in 10.0 mi NNW 6.9 mph - N/A   Clear
10:53 AM 59.0 °F 32.0 °F 36% 30.07 in 10.0 mi NNW 10.4 mph 19.6 mph N/A   Clear
11:53 AM 61.0 °F 30.0 °F 31% 30.06 in 10.0 mi WNW 18.4 mph - N/A   Partly Cloudy
12:53 PM 63.0 °F 30.9 °F 30% 30.03 in 10.0 mi NW 10.4 mph 23.0 mph N/A   Scattered Clouds
1:53 PM 64.9 °F 32.0 °F 29% 30.00 in 10.0 mi WNW 10.4 mph 26.5 mph N/A   Scattered Clouds
2:53 PM 66.0 °F 30.9 °F 27% 29.99 in 10.0 mi West 17.3 mph 26.5 mph N/A   Scattered Clouds
3:53 PM 66.0 °F 32.0 °F 28% 29.98 in 10.0 mi WNW 19.6 mph 24.2 mph N/A   Mostly Cloudy
4:53 PM 64.9 °F 30.0 °F 27% 29.99 in 10.0 mi West 13.8 mph - N/A   Mostly Cloudy
5:53 PM 63.0 °F 30.0 °F 29% 29.99 in 10.0 mi West 11.5 mph 21.9 mph N/A   Overcast
6:53 PM 60.8 °F 30.2 °F 31% 30.00 in 10.0 mi West 8.1 mph - N/A   Mostly Cloudy
7:53 PM 57.9 °F 33.1 °F 39% 30.01 in 10.0 mi West 6.9 mph - N/A   Mostly Cloudy
8:53 PM 55.9 °F 33.1 °F 42% 30.02 in 10.0 mi West 4.6 mph - N/A   Scattered Clouds
9:53 PM 54.0 °F 34.0 °F 47% 30.03 in 10.0 mi West 4.6 mph - N/A   Mostly Cloudy
10:53 PM 53.1 °F 36.0 °F 52% 30.04 in 10.0 mi Calm Calm - N/A   Mostly Cloudy
11:53 PM 48.0 °F 39.9 °F 74% 30.04 in 10.0 mi ESE 3.5 mph - N/A   Partly Cloudy